,,PA_Meas_PMT16A,,PR_Meas_QMR101_102,,RH_Meas_QMH101,,SR_Meas_QMS101,,TA_Meas_QMH101,,GenWind,,GenWind,
time,status,PA,status,PR,status,RH,status,SR,status,TA,status,DirAvg,status,SpdAvg,
2009-10-17, 00:00:04,VALID,918.323,VALID,0,VALID,97.7703,VALID,0,VALID,19.2334,VALID,103,VALID,0.450391,
2009-10-17, 00:01:04,VALID,918.288,VALID,0,VALID,97.7856,VALID,0,VALID,19.2139,VALID,103,VALID,0.661328,
2009-10-17, 00:02:04,VALID,918.311,VALID,0,VALID,97.7856,VALID,0,VALID,19.1944,VALID,103,VALID,0.615625,
2009-10-17, 00:03:04,VALID,918.259,VALID,0,VALID,97.8237,VALID,0,VALID,19.1944,VALID,103,VALID,0.809766,
2009-10-17, 00:04:04,VALID,918.273,VALID,0,VALID,97.8084,VALID,0,VALID,19.1734,VALID,103,VALID,0.814453,
2009-10-17, 00:05:04,VALID,918.239,VALID,0,VALID,97.816,VALID,0,VALID,19.1749,VALID,103,VALID,1.00742,
2009-10-17, 00:06:04,VALID,918.273,VALID,0,VALID,97.8008,VALID,0,VALID,19.1749,VALID,103,VALID,0.567578,
2009-10-17, 00:07:04,VALID,918.24,VALID,0,VALID,97.816,VALID,0,VALID,19.1554,VALID,103,VALID,1.04062,
2009-10-17, 00:08:04,VALID,918.216,VALID,0,VALID,97.816,VALID,0,VALID,19.1359,VALID,103,VALID,0.963672,
2009-10-17, 00:09:04,VALID,918.215,VALID,0,VALID,97.816,VALID,0,VALID,19.1164,VALID,115,VALID,1.55234,
2009-10-17, 00:10:04,VALID,918.181,VALID,0,VALID,97.8389,VALID,0,VALID,19.1164,VALID,133,VALID,1.72227,
2009-10-17, 00:11:04,VALID,918.184,VALID,0,VALID,97.8313,VALID,0,VALID,19.1164,VALID,146,VALID,1.1793,
2009-10-17, 00:12:04,VALID,918.165,VALID,0,VALID,97.8465,VALID,0,VALID,19.0759,VALID,144,VALID,1.57813,
2009-10-17, 00:13:04,VALID,918.188,VALID,0,VALID,97.8694,VALID,0,VALID,19.1164,VALID,145,VALID,1.33828,
2009-10-17, 00:14:04,VALID,918.204,VALID,0,VALID,97.8694,VALID,0.107441,VALID,19.1554,VALID,148,VALID,1.73711,
2009-10-17, 00:15:04,VALID,918.185,VALID,0,VALID,97.8999,VALID,0,VALID,19.1554,VALID,124,VALID,2.16094,
2009-10-17, 00:16:04,VALID,918.229,VALID,0,VALID,97.8847,VALID,0.107441,VALID,19.1749,VALID,145,VALID,1.18242,
2009-10-17, 00:17:04,VALID,918.265,VALID,0,VALID,97.877,VALID,0,VALID,19.1734,VALID,160,VALID,1.68984,
2009-10-17, 00:18:04,VALID,918.257,VALID,0,VALID,97.8618,VALID,0,VALID,19.1734,VALID,147,VALID,2.22813,
2009-10-17, 00:19:04,VALID,918.29,VALID,0,VALID,97.8923,VALID,0,VALID,19.1929,VALID,167,VALID,1.12344,
2009-10-17, 00:20:04,VALID,918.306,VALID,0,VALID,97.8847,VALID,0,VALID,19.2334,VALID,141,VALID,1.58594,
2009-10-17, 00:21:04,VALID,918.31,VALID,0,VALID,97.8847,VALID,0,VALID,19.2334,VALID,147,VALID,1.55156,
2009-10-17, 00:22:04,VALID,918.37,VALID,0,VALID,97.877,VALID,0,VALID,19.2334,VALID,121,VALID,0.8875,
2009-10-17, 00:23:04,VALID,918.366,VALID,0,VALID,97.877,VALID,0,VALID,19.2334,VALID,164,VALID,1.56562,
2009-10-17, 00:24:04,VALID,918.386,VALID,0,VALID,97.8847,VALID,0,VALID,19.2528,VALID,162,VALID,1.16328,
2009-10-17, 00:25:04,VALID,918.386,VALID,0,VALID,97.877,VALID,0,VALID,19.2738,VALID,155,VALID,1.64961,
2009-10-17, 00:26:04,VALID,918.437,VALID,0,VALID,97.8694,VALID,0,VALID,19.2723,VALID,147,VALID,1.76992,
2009-10-17, 00:27:04,VALID,918.442,VALID,0,VALID,97.8694,VALID,0,VALID,19.2918,VALID,167,VALID,1.09492,
2009-10-17, 00:28:04,VALID,918.427,VALID,0,VALID,97.877,VALID,0,VALID,19.3128,VALID,165,VALID,1.36758,
2009-10-17, 00:29:04,VALID,918.44,VALID,0,VALID,97.8694,VALID,0,VALID,19.2918,VALID,143,VALID,0.769922,
2009-10-17, 00:30:04,VALID,918.421,VALID,0,VALID,97.8618,VALID,0,VALID,19.2918,VALID,144,VALID,0.744531,
2009-10-17, 00:31:04,VALID,918.409,VALID,0,VALID,97.8618,VALID,0,VALID,19.3113,VALID,143,VALID,0.878516,
2009-10-17, 00:32:04,VALID,918.405,VALID,0,VALID,97.877,VALID,0,VALID,19.2918,VALID,143,VALID,0.895703,
2009-10-17, 00:33:04,VALID,918.379,VALID,0,VALID,97.8618,VALID,0,VALID,19.3113,VALID,143,VALID,1.03555,
2009-10-17, 00:34:04,VALID,918.381,VALID,0,VALID,97.8694,VALID,0,VALID,19.2918,VALID,143,VALID,0.517187,
2009-10-17, 00:35:04,VALID,918.402,VALID,0,VALID,97.8542,VALID,0,VALID,19.3308,VALID,143,VALID,0.396484,
2009-10-17, 00:36:04,VALID,918.42,VALID,0,VALID,97.8923,VALID,0,VALID,19.3308,VALID,143,VALID,0.660937,
2009-10-17, 00:37:04,VALID,918.428,VALID,0,VALID,97.8694,VALID,0,VALID,19.3113,VALID,143,VALID,0.738281,
2009-10-17, 00:38:04,VALID,918.44,VALID,0,VALID,97.8694,VALID,0,VALID,19.3113,VALID,143,VALID,0.469141,
2009-10-17, 00:39:04,VALID,918.408,VALID,0,VALID,97.8694,VALID,0,VALID,19.3113,VALID,143,VALID,0.230469,
2009-10-17, 00:40:04,VALID,918.428,VALID,0,VALID,97.8618,VALID,0,VALID,19.3113,VALID,143,VALID,0.155078,
2009-10-17, 00:41:04,VALID,918.432,VALID,0,VALID,97.8618,VALID,0,VALID,19.2918,VALID,144,VALID,0.421875,
2009-10-17, 00:42:04,VALID,918.437,VALID,0,VALID,97.8542,VALID,0,VALID,19.2723,VALID,143,VALID,0.596484,
2009-10-17, 00:43:04,VALID,918.433,VALID,0,VALID,97.8389,VALID,0,VALID,19.2723,VALID,143,VALID,0.919531,
2009-10-17, 00:44:04,VALID,918.429,VALID,0,VALID,97.8618,VALID,0,VALID,19.2334,VALID,143,VALID,0.700391,
2009-10-17, 00:45:04,VALID,918.402,VALID,0,VALID,97.8465,VALID,0,VALID,19.2334,VALID,122,VALID,1.05234,
2009-10-17, 00:46:04,VALID,918.404,VALID,0,VALID,97.8694,VALID,0,VALID,19.2139,VALID,122,VALID,1.08672,
2009-10-17, 00:47:04,VALID,918.392,VALID,0,VALID,97.8542,VALID,0,VALID,19.2139,VALID,122,VALID,1.44258,
2009-10-17, 00:48:04,VALID,918.387,VALID,0,VALID,97.8542,VALID,0,VALID,19.2139,VALID,116,VALID,1.63398,
2009-10-17, 00:49:04,VALID,918.348,VALID,0,VALID,97.8618,VALID,0,VALID,19.2334,VALID,139,VALID,1.45039,
2009-10-17, 00:50:04,VALID,918.339,VALID,0,VALID,97.877,VALID,0,VALID,19.2528,VALID,121,VALID,1.42852,
2009-10-17, 00:51:04,VALID,918.282,VALID,0,VALID,97.8542,VALID,0,VALID,19.2334,VALID,148,VALID,1.25664,
2009-10-17, 00:52:04,VALID,918.267,VALID,0,VALID,97.8618,VALID,0,VALID,19.2334,VALID,148,VALID,1.06055,
2009-10-17, 00:53:04,VALID,918.234,VALID,0,VALID,97.8313,VALID,0,VALID,19.2139,VALID,107,VALID,1.12422,
2009-10-17, 00:54:04,VALID,918.217,VALID,0,VALID,97.8389,VALID,0,VALID,19.2334,VALID,107,VALID,1.34219,
2009-10-17, 00:55:04,VALID,918.142,VALID,0,VALID,97.8389,VALID,0,VALID,19.2139,VALID,107,VALID,1.1832,
2009-10-17, 00:56:04,VALID,918.121,VALID,0,VALID,97.8465,VALID,0,VALID,19.2139,VALID,107,VALID,1.08477,
2009-10-17, 00:57:04,VALID,918.122,VALID,0,VALID,97.8313,VALID,0,VALID,19.1944,VALID,107,VALID,1.00977,
2009-10-17, 00:58:04,VALID,918.106,VALID,0,VALID,97.8313,VALID,0,VALID,19.1944,VALID,107,VALID,1.06289,
2009-10-17, 00:59:04,VALID,918.099,VALID,0,VALID,97.8542,VALID,0,VALID,19.1749,VALID,146,VALID,1.36406,
2009-10-17, 01:00:04,VALID,918.09,VALID,0,VALID,97.8313,VALID,0,VALID,19.1944,VALID,136,VALID,1.68711,
2009-10-17, 01:01:04,VALID,918.107,VALID,0,VALID,97.8618,VALID,0,VALID,19.1944,VALID,153,VALID,1.1168,
2009-10-17, 01:02:04,VALID,918.075,VALID,0,VALID,97.8542,VALID,0,VALID,19.2139,VALID,176,VALID,1.22578,
2009-10-17, 01:03:04,VALID,918.073,VALID,0,VALID,97.8694,VALID,0,VALID,19.1944,VALID,137,VALID,1.69609,
2009-10-17, 01:04:04,VALID,918.028,VALID,0,VALID,97.8465,VALID,0,VALID,19.1749,VALID,136,VALID,1.45664,
2009-10-17, 01:05:04,VALID,917.997,VALID,0,VALID,97.8694,VALID,0,VALID,19.1749,VALID,127,VALID,1.3125,
2009-10-17, 01:06:04,VALID,917.974,VALID,0,VALID,97.877,VALID,0,VALID,19.1749,VALID,126,VALID,1.06367,
2009-10-17, 01:07:04,VALID,917.941,VALID,0,VALID,97.8618,VALID,0,VALID,19.1749,VALID,126,VALID,1.41758,
2009-10-17, 01:08:04,VALID,917.933,VALID,0,VALID,97.8313,VALID,0,VALID,19.1554,VALID,126,VALID,1.03477,
2009-10-17, 01:09:04,VALID,917.962,VALID,0,VALID,97.8694,VALID,0,VALID,19.1554,VALID,126,VALID,1.11992,
2009-10-17, 01:10:04,VALID,917.941,VALID,0,VALID,97.8313,VALID,0,VALID,19.1344,VALID,126,VALID,1.0043,
2009-10-17, 01:11:04,VALID,917.953,VALID,0,VALID,97.8542,VALID,0,VALID,19.1749,VALID,126,VALID,0.964453,
2009-10-17, 01:12:04,VALID,917.968,VALID,0,VALID,97.8542,VALID,0,VALID,19.1554,VALID,158,VALID,0.939844,
2009-10-17, 01:13:04,VALID,917.942,VALID,0,VALID,97.8389,VALID,0,VALID,19.1359,VALID,158,VALID,0.973828,
2009-10-17, 01:14:04,VALID,917.93,VALID,0,VALID,97.8618,VALID,0,VALID,19.1359,VALID,158,VALID,0.913281,
2009-10-17, 01:15:04,VALID,917.916,VALID,0,VALID,97.8618,VALID,0,VALID,19.1164,VALID,158,VALID,0.819141,
2009-10-17, 01:16:04,VALID,917.901,VALID,0,VALID,97.8694,VALID,0,VALID,19.1164,VALID,158,VALID,0.914844,
2009-10-17, 01:17:04,VALID,917.887,VALID,0,VALID,97.8542,VALID,0,VALID,19.1164,VALID,158,VALID,0.748828,
2009-10-17, 01:18:04,VALID,917.901,VALID,0,VALID,97.8542,VALID,0,VALID,19.0969,VALID,158,VALID,0.839063,
2009-10-17, 01:19:04,VALID,917.873,VALID,0,VALID,97.8465,VALID,0,VALID,19.0969,VALID,158,VALID,0.530469,
2009-10-17, 01:20:04,VALID,917.839,VALID,0,VALID,97.8542,VALID,0,VALID,19.0969,VALID,158,VALID,0.417188,
2009-10-17, 01:21:04,VALID,917.852,VALID,0,VALID,97.8618,VALID,0,VALID,19.0969,VALID,158,VALID,0.192578,
2009-10-17, 01:22:04,VALID,917.805,VALID,0,VALID,97.8694,VALID,0,VALID,19.1164,VALID,158,VALID,0,
2009-10-17, 01:23:04,VALID,917.778,VALID,0,VALID,97.8694,VALID,0,VALID,19.1373,VALID,158,VALID,0,
2009-10-17, 01:24:04,VALID,917.81,VALID,0,VALID,97.877,VALID,0,VALID,19.1164,VALID,158,VALID,0.214062,
2009-10-17, 01:25:04,VALID,917.764,VALID,0,VALID,97.8465,VALID,0,VALID,19.1164,VALID,158,VALID,0,
2009-10-17, 01:26:04,VALID,917.726,VALID,0,VALID,97.8694,VALID,0,VALID,19.1373,VALID,158,VALID,0,
2009-10-17, 01:27:04,VALID,917.721,VALID,0,VALID,97.8389,VALID,0,VALID,19.0969,VALID,158,VALID,0.00078125,
2009-10-17, 01:28:04,VALID,917.69,VALID,0,VALID,97.7551,VALID,0,VALID,19.0593,VALID,158,VALID,0.622266,
2009-10-17, 01:29:04,VALID,917.685,VALID,0,VALID,97.7703,VALID,0,VALID,18.9994,VALID,158,VALID,0.815234,
2009-10-17, 01:30:04,VALID,917.656,VALID,0,VALID,97.7703,VALID,0,VALID,18.9604,VALID,158,VALID,0.891406,
2009-10-17, 01:31:04,VALID,917.659,VALID,0,VALID,97.8313,VALID,0,VALID,18.9409,VALID,158,VALID,0.622656,
2009-10-17, 01:32:04,VALID,917.652,VALID,0,VALID,97.8389,VALID,0,VALID,18.9409,VALID,158,VALID,0.659766,
2009-10-17, 01:33:04,VALID,917.64,VALID,0,VALID,97.8923,VALID,0,VALID,18.9799,VALID,158,VALID,0.846094,
2009-10-17, 01:34:04,VALID,917.639,VALID,0,VALID,97.9228,VALID,0,VALID,18.9994,VALID,158,VALID,0.612891,
2009-10-17, 01:35:04,VALID,917.619,VALID,0,VALID,97.8923,VALID,0,VALID,18.9994,VALID,158,VALID,0.626172,
2009-10-17, 01:36:04,VALID,917.622,VALID,0,VALID,97.8694,VALID,0,VALID,19.0189,VALID,158,VALID,0.582812,
2009-10-17, 01:37:04,VALID,917.601,VALID,0,VALID,97.8084,VALID,0,VALID,18.9799,VALID,158,VALID,0.476172,
2009-10-17, 01:38:04,VALID,917.577,VALID,0,VALID,97.7322,VALID,0,VALID,18.9019,VALID,158,VALID,0.670703,
2009-10-17, 01:39:04,VALID,917.551,VALID,0,VALID,97.7017,VALID,0,VALID,18.824,VALID,158,VALID,0.953516,
2009-10-17, 01:40:04,VALID,917.541,VALID,0,VALID,97.7932,VALID,0,VALID,18.785,VALID,158,VALID,0.936719,
2009-10-17, 01:41:04,VALID,917.507,VALID,0,VALID,97.8923,VALID,0.107441,VALID,18.824,VALID,158,VALID,0.994922,
2009-10-17, 01:42:04,VALID,917.484,VALID,0,VALID,97.938,VALID,0.107441,VALID,18.842,VALID,158,VALID,0.969531,
2009-10-17, 01:43:04,VALID,917.465,VALID,0,VALID,97.8999,VALID,0,VALID,18.8824,VALID,158,VALID,0.820703,
2009-10-17, 01:44:04,VALID,917.433,VALID,0,VALID,97.8923,VALID,0,VALID,18.8434,VALID,158,VALID,0.825,
2009-10-17, 01:45:04,VALID,917.437,VALID,0,VALID,97.8618,VALID,0,VALID,18.824,VALID,158,VALID,0.839063,
2009-10-17, 01:46:04,VALID,917.393,VALID,0,VALID,97.8694,VALID,0.107441,VALID,18.8045,VALID,158,VALID,0.580078,
2009-10-17, 01:47:04,VALID,917.385,VALID,0,VALID,97.8389,VALID,0,VALID,18.785,VALID,158,VALID,0.529688,
2009-10-17, 01:48:04,VALID,917.359,VALID,0,VALID,97.8465,VALID,0,VALID,18.7655,VALID,158,VALID,0.423438,
2009-10-17, 01:49:04,VALID,917.363,VALID,0,VALID,97.816,VALID,0.107441,VALID,18.707,VALID,158,VALID,0.532812,
2009-10-17, 01:50:04,VALID,917.342,VALID,0,VALID,97.8618,VALID,0,VALID,18.707,VALID,158,VALID,0.619141,
2009-10-17, 01:51:04,VALID,917.344,VALID,0,VALID,97.9304,VALID,0.107441,VALID,18.7265,VALID,158,VALID,0.567578,
2009-10-17, 01:52:04,VALID,917.344,VALID,0,VALID,97.9075,VALID,0,VALID,18.7265,VALID,158,VALID,0.445703,
2009-10-17, 01:53:04,VALID,917.338,VALID,0,VALID,97.8923,VALID,0,VALID,18.707,VALID,158,VALID,0.527734,
2009-10-17, 01:54:04,VALID,917.296,VALID,0,VALID,97.8694,VALID,0,VALID,18.6485,VALID,158,VALID,0.553125,
2009-10-17, 01:55:04,VALID,917.274,VALID,0,VALID,97.877,VALID,0,VALID,18.668,VALID,158,VALID,0.627734,
2009-10-17, 01:56:04,VALID,917.285,VALID,0,VALID,97.8694,VALID,0,VALID,18.6485,VALID,158,VALID,0.568359,
2009-10-17, 01:57:04,VALID,917.295,VALID,0,VALID,97.8694,VALID,0,VALID,18.6095,VALID,158,VALID,0.526953,
2009-10-17, 01:58:04,VALID,917.257,VALID,0,VALID,97.938,VALID,0,VALID,18.6095,VALID,158,VALID,0.657422,
2009-10-17, 01:59:04,VALID,917.253,VALID,0,VALID,97.9533,VALID,0,VALID,18.6485,VALID,158,VALID,0.664453,
2009-10-17, 02:00:04,VALID,917.23,VALID,0,VALID,97.9685,VALID,0,VALID,18.6485,VALID,158,VALID,0.641406,
2009-10-17, 02:01:04,VALID,917.233,VALID,0,VALID,97.9685,VALID,0,VALID,18.6875,VALID,158,VALID,0.717188,
2009-10-17, 02:02:04,VALID,917.201,VALID,0,VALID,97.9685,VALID,0.107441,VALID,18.7265,VALID,158,VALID,0.814844,
2009-10-17, 02:03:04,VALID,917.176,VALID,0,VALID,97.9685,VALID,0.107441,VALID,18.746,VALID,158,VALID,0.813672,
2009-10-17, 02:04:04,VALID,917.146,VALID,0,VALID,97.9685,VALID,0,VALID,18.7265,VALID,158,VALID,0.800391,
2009-10-17, 02:05:04,VALID,917.154,VALID,0,VALID,97.9533,VALID,0.107441,VALID,18.6861,VALID,158,VALID,0.904297,
2009-10-17, 02:06:04,VALID,917.144,VALID,0,VALID,97.9685,VALID,0.107441,VALID,18.7265,VALID,158,VALID,0.772656,
2009-10-17, 02:07:04,VALID,917.119,VALID,0,VALID,97.9533,VALID,0,VALID,18.707,VALID,158,VALID,0.930859,
2009-10-17, 02:08:04,VALID,917.14,VALID,0,VALID,97.9456,VALID,0.107441,VALID,18.746,VALID,158,VALID,1.17188,
2009-10-17, 02:09:04,VALID,917.13,VALID,0,VALID,97.9533,VALID,0,VALID,18.7655,VALID,157,VALID,1.09023,
2009-10-17, 02:10:04,VALID,917.154,VALID,0,VALID,97.9609,VALID,0,VALID,18.746,VALID,157,VALID,1.10234,
2009-10-17, 02:11:04,VALID,917.138,VALID,0,VALID,97.9533,VALID,0,VALID,18.7655,VALID,157,VALID,1.18594,
2009-10-17, 02:12:04,VALID,917.173,VALID,0,VALID,97.9304,VALID,0.107441,VALID,18.7655,VALID,119,VALID,1.06602,
2009-10-17, 02:13:04,VALID,917.129,VALID,0,VALID,97.9304,VALID,0.107441,VALID,18.7655,VALID,119,VALID,0.798437,
2009-10-17, 02:14:04,VALID,917.165,VALID,0,VALID,97.9533,VALID,0,VALID,18.785,VALID,119,VALID,1.06406,
2009-10-17, 02:15:04,VALID,917.112,VALID,0,VALID,97.9609,VALID,0,VALID,18.785,VALID,119,VALID,0.946484,
2009-10-17, 02:16:04,VALID,917.091,VALID,0,VALID,97.9533,VALID,0,VALID,18.785,VALID,119,VALID,0.875,
2009-10-17, 02:17:04,VALID,917.089,VALID,0,VALID,97.938,VALID,0,VALID,18.7655,VALID,119,VALID,0.734375,
2009-10-17, 02:18:04,VALID,917.081,VALID,0,VALID,97.9533,VALID,0,VALID,18.785,VALID,119,VALID,0.6875,
2009-10-17, 02:19:04,VALID,917.067,VALID,0,VALID,97.9685,VALID,0.107441,VALID,18.785,VALID,119,VALID,0.576953,
2009-10-17, 02:20:04,VALID,917.045,VALID,0,VALID,97.9456,VALID,0,VALID,18.7655,VALID,119,VALID,0.465625,
2009-10-17, 02:21:04,VALID,917.026,VALID,0,VALID,97.9456,VALID,0,VALID,18.785,VALID,119,VALID,0.554297,
2009-10-17, 02:22:04,VALID,917.012,VALID,0,VALID,97.9304,VALID,0.107441,VALID,18.785,VALID,119,VALID,0.669141,
2009-10-17, 02:23:04,VALID,917.004,VALID,0,VALID,97.9304,VALID,0,VALID,18.7864,VALID,119,VALID,0.709375,
2009-10-17, 02:24:04,VALID,917.001,VALID,0,VALID,97.9152,VALID,0,VALID,18.7251,VALID,119,VALID,0.455078,
2009-10-17, 02:25:04,VALID,916.994,VALID,0,VALID,97.938,VALID,0.107441,VALID,18.746,VALID,119,VALID,0.528125,
2009-10-17, 02:26:04,VALID,916.978,VALID,0,VALID,97.9456,VALID,0,VALID,18.7265,VALID,119,VALID,0.407813,
2009-10-17, 02:27:04,VALID,916.931,VALID,0,VALID,97.938,VALID,0.107441,VALID,18.7265,VALID,119,VALID,0.453125,
2009-10-17, 02:28:04,VALID,916.973,VALID,0,VALID,97.8999,VALID,0.107441,VALID,18.707,VALID,119,VALID,0.385938,
2009-10-17, 02:29:04,VALID,916.938,VALID,0,VALID,97.9304,VALID,0,VALID,18.6875,VALID,119,VALID,0.496094,
2009-10-17, 02:30:04,VALID,916.954,VALID,0,VALID,97.9685,VALID,0,VALID,18.6889,VALID,119,VALID,0.582812,
2009-10-17, 02:31:04,VALID,916.963,VALID,0,VALID,97.9456,VALID,0,VALID,18.6666,VALID,119,VALID,0.687891,
2009-10-17, 02:32:04,VALID,916.961,VALID,0,VALID,97.9609,VALID,0,VALID,18.7265,VALID,119,VALID,0.561328,
2009-10-17, 02:33:04,VALID,916.987,VALID,0,VALID,97.9761,VALID,0,VALID,18.746,VALID,119,VALID,0.605078,
2009-10-17, 02:34:04,VALID,916.995,VALID,0,VALID,97.9761,VALID,0.107441,VALID,18.7265,VALID,119,VALID,0.385156,
2009-10-17, 02:35:04,VALID,916.942,VALID,0,VALID,97.9456,VALID,0,VALID,18.6875,VALID,119,VALID,0.447266,
2009-10-17, 02:36:04,VALID,916.895,VALID,0,VALID,97.9228,VALID,0,VALID,18.6875,VALID,119,VALID,0.376172,
2009-10-17, 02:37:04,VALID,916.841,VALID,0,VALID,97.9152,VALID,0.107441,VALID,18.668,VALID,119,VALID,0.392188,
2009-10-17, 02:38:04,VALID,916.85,VALID,0,VALID,97.8847,VALID,0,VALID,18.6304,VALID,119,VALID,0.225391,
2009-10-17, 02:39:04,VALID,916.82,VALID,0,VALID,97.8313,VALID,0,VALID,18.5511,VALID,119,VALID,0.204688,
2009-10-17, 02:40:04,VALID,916.865,VALID,0,VALID,97.8923,VALID,0,VALID,18.5525,VALID,119,VALID,0.174219,
2009-10-17, 02:41:04,VALID,916.846,VALID,0,VALID,97.9304,VALID,0,VALID,18.5316,VALID,119,VALID,0,
2009-10-17, 02:42:04,VALID,916.854,VALID,0,VALID,97.938,VALID,0,VALID,18.5511,VALID,119,VALID,0.00078125,
2009-10-17, 02:43:04,VALID,916.885,VALID,0,VALID,97.938,VALID,0,VALID,18.572,VALID,119,VALID,0.00742187,
2009-10-17, 02:44:04,VALID,916.894,VALID,0,VALID,97.8465,VALID,0,VALID,18.5121,VALID,119,VALID,0.533594,
2009-10-17, 02:45:04,VALID,916.879,VALID,0,VALID,97.8465,VALID,0,VALID,18.4536,VALID,119,VALID,0.210547,
2009-10-17, 02:46:04,VALID,916.891,VALID,0,VALID,97.9075,VALID,0,VALID,18.4745,VALID,119,VALID,0,
2009-10-17, 02:47:04,VALID,916.85,VALID,0,VALID,97.8847,VALID,0,VALID,18.4146,VALID,119,VALID,0.363281,
2009-10-17, 02:48:04,VALID,916.85,VALID,0,VALID,97.7779,VALID,0,VALID,18.3172,VALID,119,VALID,0.521094,
2009-10-17, 02:49:04,VALID,916.83,VALID,0,VALID,97.9152,VALID,0,VALID,18.3185,VALID,119,VALID,0.329688,
2009-10-17, 02:50:04,VALID,916.832,VALID,0,VALID,97.9152,VALID,0,VALID,18.3172,VALID,119,VALID,0.402734,
2009-10-17, 02:51:04,VALID,916.79,VALID,0,VALID,97.877,VALID,0,VALID,18.2796,VALID,119,VALID,0.405469,
2009-10-17, 02:52:04,VALID,916.782,VALID,0,VALID,97.9609,VALID,0,VALID,18.2782,VALID,119,VALID,0.408984,
2009-10-17, 02:53:04,VALID,916.772,VALID,0,VALID,97.9304,VALID,0,VALID,18.2601,VALID,119,VALID,0.5625,
2009-10-17, 02:54:04,VALID,916.734,VALID,0,VALID,98.06,VALID,0,VALID,18.338,VALID,119,VALID,0.586328,
2009-10-17, 02:55:04,VALID,916.741,VALID,0,VALID,98.0371,VALID,0,VALID,18.4355,VALID,119,VALID,0.494531,
2009-10-17, 02:56:04,VALID,916.737,VALID,0,VALID,98.0219,VALID,0,VALID,18.4536,VALID,119,VALID,0.5625,
2009-10-17, 02:57:04,VALID,916.741,VALID,0,VALID,98.0295,VALID,0,VALID,18.5135,VALID,119,VALID,0.507813,
2009-10-17, 02:58:04,VALID,916.745,VALID,0,VALID,98.0295,VALID,0,VALID,18.533,VALID,119,VALID,0.605078,
2009-10-17, 02:59:04,VALID,916.773,VALID,0,VALID,98.0066,VALID,0,VALID,18.572,VALID,119,VALID,0.540234,
2009-10-17, 03:00:04,VALID,916.738,VALID,0,VALID,97.999,VALID,0,VALID,18.572,VALID,119,VALID,0.645312,
2009-10-17, 03:01:04,VALID,916.756,VALID,0,VALID,97.9685,VALID,0,VALID,18.5914,VALID,119,VALID,0.782812,
2009-10-17, 03:02:04,VALID,916.753,VALID,0,VALID,97.9914,VALID,0,VALID,18.5135,VALID,119,VALID,0.880078,
2009-10-17, 03:03:04,VALID,916.769,VALID,0,VALID,97.9533,VALID,0,VALID,18.455,VALID,119,VALID,1.09531,
2009-10-17, 03:04:04,VALID,916.755,VALID,0,VALID,97.9609,VALID,0,VALID,18.3965,VALID,119,VALID,0.925781,
2009-10-17, 03:05:04,VALID,916.746,VALID,0,VALID,97.8694,VALID,0,VALID,18.3575,VALID,119,VALID,0.721484,
2009-10-17, 03:06:04,VALID,916.742,VALID,0,VALID,97.8542,VALID,0,VALID,18.2796,VALID,119,VALID,0.631641,
2009-10-17, 03:07:04,VALID,916.747,VALID,0,VALID,97.9456,VALID,0,VALID,18.299,VALID,119,VALID,0.783203,
2009-10-17, 03:08:04,VALID,916.779,VALID,0,VALID,97.9609,VALID,0,VALID,18.3561,VALID,119,VALID,0.608203,
2009-10-17, 03:09:04,VALID,916.777,VALID,0,VALID,97.938,VALID,0,VALID,18.2977,VALID,119,VALID,0.633203,
2009-10-17, 03:10:04,VALID,916.804,VALID,0,VALID,97.877,VALID,0,VALID,18.2796,VALID,119,VALID,0.830859,
2009-10-17, 03:11:04,VALID,916.839,VALID,0,VALID,97.7474,VALID,0,VALID,18.1236,VALID,119,VALID,0.695703,
2009-10-17, 03:12:04,VALID,916.843,VALID,0,VALID,97.8999,VALID,0,VALID,18.1431,VALID,119,VALID,0.81875,
2009-10-17, 03:13:04,VALID,916.844,VALID,0,VALID,98.0524,VALID,0,VALID,18.2406,VALID,119,VALID,0.936719,
2009-10-17, 03:14:04,VALID,916.868,VALID,0,VALID,98.0448,VALID,0,VALID,18.3394,VALID,119,VALID,1.04688,
2009-10-17, 03:15:04,VALID,916.867,VALID,0,VALID,98.0371,VALID,0,VALID,18.3575,VALID,119,VALID,0.888672,
2009-10-17, 03:16:04,VALID,916.866,VALID,0,VALID,98.0371,VALID,0,VALID,18.3575,VALID,119,VALID,1.00156,
2009-10-17, 03:17:04,VALID,916.871,VALID,0,VALID,98.0371,VALID,0,VALID,18.3575,VALID,119,VALID,0.699609,
2009-10-17, 03:18:04,VALID,916.812,VALID,0,VALID,98.0219,VALID,0,VALID,18.3575,VALID,119,VALID,0.787891,
2009-10-17, 03:19:04,VALID,916.827,VALID,0,VALID,98.0448,VALID,0,VALID,18.377,VALID,119,VALID,0.675391,
2009-10-17, 03:20:04,VALID,916.817,VALID,0,VALID,98.0066,VALID,0,VALID,18.377,VALID,119,VALID,0.689844,
2009-10-17, 03:21:04,VALID,916.835,VALID,0,VALID,98.0066,VALID,0,VALID,18.3172,VALID,119,VALID,0.625781,
2009-10-17, 03:22:04,VALID,916.81,VALID,0,VALID,98.0143,VALID,0,VALID,18.3185,VALID,119,VALID,0.573828,
2009-10-17, 03:23:04,VALID,916.848,VALID,0,VALID,98.0066,VALID,0,VALID,18.299,VALID,119,VALID,0.429688,
2009-10-17, 03:24:04,VALID,916.854,VALID,0,VALID,98.0143,VALID,0,VALID,18.2796,VALID,119,VALID,0.307422,
2009-10-17, 03:25:04,VALID,916.821,VALID,0,VALID,97.999,VALID,0,VALID,18.299,VALID,119,VALID,0.231641,
2009-10-17, 03:26:04,VALID,916.831,VALID,0,VALID,97.999,VALID,0,VALID,18.2601,VALID,119,VALID,0.182031,
2009-10-17, 03:27:04,VALID,916.833,VALID,0,VALID,97.9914,VALID,0,VALID,18.2406,VALID,119,VALID,0,
2009-10-17, 03:28:04,VALID,916.843,VALID,0,VALID,97.9533,VALID,0,VALID,18.2002,VALID,119,VALID,0,
2009-10-17, 03:29:04,VALID,916.827,VALID,0,VALID,97.9456,VALID,0,VALID,18.1626,VALID,119,VALID,0,
2009-10-17, 03:30:04,VALID,916.844,VALID,0,VALID,97.9609,VALID,0,VALID,18.1236,VALID,119,VALID,0,
2009-10-17, 03:31:04,VALID,916.818,VALID,0,VALID,97.999,VALID,0,VALID,18.1041,VALID,119,VALID,0,
2009-10-17, 03:32:04,VALID,916.886,VALID,0,VALID,98.0219,VALID,0,VALID,18.1041,VALID,119,VALID,0,
2009-10-17, 03:33:04,VALID,916.893,VALID,0,VALID,98.06,VALID,0,VALID,18.1431,VALID,119,VALID,0,
2009-10-17, 03:34:04,VALID,916.901,VALID,0,VALID,98.0829,VALID,0,VALID,18.1626,VALID,119,VALID,0,
2009-10-17, 03:35:04,VALID,916.921,VALID,0,VALID,98.06,VALID,0,VALID,18.2016,VALID,119,VALID,0,
2009-10-17, 03:36:04,VALID,916.949,VALID,0,VALID,98.0676,VALID,0,VALID,18.2016,VALID,119,VALID,0,
2009-10-17, 03:37:04,VALID,916.965,VALID,0,VALID,98.0524,VALID,0,VALID,18.2211,VALID,119,VALID,0,
2009-10-17, 03:38:04,VALID,917.043,VALID,0,VALID,98.0448,VALID,0,VALID,18.2197,VALID,119,VALID,0,
2009-10-17, 03:39:04,VALID,917.061,VALID,0,VALID,98.0524,VALID,0,VALID,18.2392,VALID,119,VALID,0,
2009-10-17, 03:40:04,VALID,917.083,VALID,0,VALID,98.0295,VALID,0,VALID,18.2782,VALID,119,VALID,0.280078,
2009-10-17, 03:41:04,VALID,917.104,VALID,0,VALID,98.0143,VALID,0,VALID,18.1807,VALID,119,VALID,0.339453,
2009-10-17, 03:42:04,VALID,917.133,VALID,0,VALID,97.9456,VALID,0,VALID,18.1028,VALID,119,VALID,0.539844,
2009-10-17, 03:43:04,VALID,917.147,VALID,0,VALID,97.9914,VALID,0,VALID,18.0833,VALID,119,VALID,0.577734,
2009-10-17, 03:44:04,VALID,917.175,VALID,0,VALID,97.9761,VALID,0.107441,VALID,18.0833,VALID,119,VALID,0.610156,